User: anonymous   Login
Location: Ch�teau-Arnoux
(44.0814°N, 6.0027°E)
Time: 02:17:38
(UTC+00:00)
Language:

STARLINK-71 - Orbit

View from above orbital plane
View from above orbital plane
View from above satellite
View from above satellite

Ground track
Ground track

The orbit data is extracted from the following two-line orbital elements,

1 44252U 19029T   20021.91667824  .00003754  00000-0  23231-3 0  9999
2 44252  52.9976 158.7763 0000977  86.5176  42.6984 15.12129594 36708
Epoch (UTC): 21 January 2020 22:00:01
Eccentricity: 0.0000977
inclination: 52.9976°
perigee height: 529 km
apogee height: 530 km
right ascension of ascending node: 158.7763°
argument of perigee: 86.5176°
revolutions per day: 15.12129594
mean anomaly at epoch: 42.6984°
orbit number at epoch: 3670

The dashed part of the orbit path shows where the satellite is in the earth's shadow,  

DLR